Weather History for Tyler, TX

Change the Weather History Date:

Friday, February 14, 2014

  Actual Average Record
Temperature  
Mean Temperature 57 °F 50 °F  
Max Temperature 71 °F 60 °F 83 °F (1945)
Min Temperature 43 °F 40 °F 11 °F (1899)
Degree Days  
Heating Degree Days 8 15  
Month to date heating degree days 351 227  
Since 1 July heating degree days 1935 1705  
Cooling Degree Days 0 0  
Month to date cooling degree days 0 0  
Year to date cooling degree days 0 4  
Growing Degree Days 6 (Base 50)    
Moisture  
Dew Point 36 °F    
Average Humidity 57    
Maximum Humidity 89    
Minimum Humidity 24    
Precipitation  
Precipitation 0.00 in 0.15 in 1.72 in (1959)
Month to date precipitation 2.10 1.85  
Year to date precipitation 2.80 4.91  
Snow  
Snow 0.00 in - - ()
Month to date snowfall 0.2  
Since 1 July snowfall 0.2  
Snow Depth 0.00 in    
Sea Level Pressure  
Sea Level Pressure 29.89 in    
Wind  
Wind Speed 11 mph (West)    
Max Wind Speed 25 mph    
Max Gust Speed 30 mph    
Visibility 10 miles    
Events      
T = Trace of Precipitation, MM = Missing Value Source: NWS Daily Summary

Daily Weather History Graph

Daily Weather History Graph

Search for Another Location

Airport:

Trip Planner

Search our weather history database for the weather conditions in past years. The results will help you decide how hot, cold, wet, or windy it might be!

Date:

Astronomy

Feb. 14, 2014 Rise Set
Actual Time 7:05 AM CST 6:06 PM CST
Civil Twilight 6:40 AM CST 6:31 PM CST
Nautical Twilight 6:11 AM CST 7:00 PM CST
Astronomical Twilight 5:42 AM CST 7:29 PM CST
Moon 6:08 PM CST (2/14) 6:34 AM CST (2/14)
Length of Visible Light 11h 51m
Length of Day
11h 01m
Full, 100% of the Moon is Illuminated
Feb 14
Full
Feb 14
Full
Feb 22
Last Quarter
Mar 1
New
Mar 8
First Quarter

Hourly Weather History & Observations

Time (CST) Temp. Windchill Dew Point Humidity Pressure Visibility Wind Dir Wind Speed Gust Speed Precip Events Conditions
12:53 AM 46.9 °F - 37.0 °F 68% 29.90 in 10.0 mi South 9.2 mph - N/A   Clear
1:53 AM 45.0 °F 40.1 °F 37.0 °F 74% 29.87 in 10.0 mi South 9.2 mph - N/A   Clear
2:53 AM 46.0 °F 41.0 °F 37.0 °F 71% 29.85 in 10.0 mi South 10.4 mph - N/A   Clear
3:53 AM 43.0 °F 38.2 °F 37.0 °F 80% 29.84 in 10.0 mi South 8.1 mph - N/A   Clear
4:53 AM 43.0 °F 37.2 °F 37.0 °F 80% 29.84 in 10.0 mi South 10.4 mph - N/A   Clear
5:53 AM 43.0 °F 37.2 °F 39.0 °F 86% 29.81 in 10.0 mi South 10.4 mph - N/A   Clear
6:53 AM 45.0 °F 38.9 °F 41.0 °F 86% 29.81 in 10.0 mi South 12.7 mph - N/A   Clear
7:53 AM 46.9 °F - 43.0 °F 86% 29.81 in 10.0 mi South 10.4 mph - N/A   Clear
8:53 AM 52.0 °F - 45.0 °F 77% 29.79 in 10.0 mi SSW 12.7 mph - N/A   Clear
9:53 AM 57.0 °F - 46.9 °F 69% 29.78 in 10.0 mi SSW 15.0 mph - N/A   Clear
10:53 AM 62.1 °F - 46.0 °F 56% 29.79 in 10.0 mi SW 17.3 mph - N/A   Clear
11:53 AM 64.9 °F - 46.0 °F 50% 29.81 in 10.0 mi WSW 12.7 mph - N/A   Clear
12:53 PM 68.0 °F - 41.0 °F 37% 29.83 in 10.0 mi NW 15.0 mph 21.9 mph N/A   Clear
1:53 PM 70.0 °F - 37.9 °F 31% 29.84 in 10.0 mi NNW 9.2 mph - N/A   Clear
2:53 PM 70.0 °F - 37.0 °F 30% 29.86 in 10.0 mi NW 17.3 mph 23.0 mph N/A   Clear
3:53 PM 69.1 °F - 34.0 °F 27% 29.89 in 10.0 mi NNW 15.0 mph 29.9 mph N/A   Clear
4:53 PM 69.1 °F - 33.1 °F 26% 29.90 in 10.0 mi North 15.0 mph 24.2 mph N/A   Clear
5:53 PM 64.9 °F - 26.1 °F 23% 29.94 in 10.0 mi NNW 10.4 mph - N/A   Clear
6:53 PM 60.1 °F - 28.0 °F 30% 29.99 in 10.0 mi NNW 9.2 mph - N/A   Clear
7:53 PM 59.0 °F - 27.0 °F 29% 30.02 in 10.0 mi North 6.9 mph - N/A   Clear
8:53 PM 52.0 °F - 28.0 °F 40% 30.05 in 10.0 mi NNW 4.6 mph - N/A   Clear
9:53 PM 51.1 °F - 28.0 °F 41% 30.05 in 10.0 mi North 3.5 mph - N/A   Clear
10:53 PM 48.9 °F - 28.9 °F 46% 30.05 in 10.0 mi North 4.6 mph - N/A   Clear
11:53 PM 48.0 °F - 28.0 °F 46% 30.06 in 10.0 mi NNE 4.6 mph - N/A   Clear